Regional Weather Roundup
Issued by NWS

Home | Current Version | Previous Version | Text Only | Print | Product List | Glossary On
Versions: 1 2 3 4 5 6 7 8 9 10 11 12 13 14 15 16 17 18 19 20 21 22 23 24 25 26 27 28 29 30 31 32 33 34 35 36 37 38 39 40 41 42 43 44 45 46 47 48 49 50
000
ASUS45 KBOU 131107
RWRCO

WEATHER ROUNDUP FOR COLORADO
NATIONAL WEATHER SERVICE DENVER/BOULDER CO
400 AM MST SAT FEB 13 2016

NOTE: "FAIR" INDICATES FEW OR NO CLOUDS BELOW 12000 FEET WITH NO
SIGNIFICANT WEATHER AND/OR OBSTRUCTIONS TO VISIBILITY.

COZ001>005-013-030-031-131200-
...NORTHWEST COLORADO...

CITY           SKY/WX    TMP DP  RH WIND       PRES   REMARKS
CRAIG          FAIR       6   2  83 NW3       30.25F
HAYDEN         FAIR      25  16  68 E15       30.24F WCI  12
MEEKER         FAIR      18  13  80 CALM      30.25F
MOUNT WERNER   NOT AVBL
STEAMBOAT SPGS FAIR      18  16  91 CALM      30.26F
WALDEN         FAIR      30  19  64 SE7       30.25F WCI  23
$$

COZ006>008-011-131200-
...WEST CENTRAL VALLEYS...

CITY           SKY/WX    TMP DP  RH WIND       PRES   REMARKS
GRAND JUNCTION FAIR      25  23  92 CALM      30.28F
MONTROSE       FAIR      27  21  78 SE7       30.30F WCI  19
EAGLE          FAIR      19  19 100 E3        30.33F
RIFLE          FAIR      21  15  78 CALM      30.29F
DELTA          FAIR      29  26  88 CALM      30.29F
NUCLA          FAIR      30  23  74 SE6       30.32F WCI  24
$$

COZ017>023-064>068-131200-
...SOUTHWEST COLORADO...

CITY           SKY/WX    TMP DP  RH WIND       PRES   REMARKS
DURANGO        FAIR      21  18  88 NE5       30.32F WCI  15
CORTEZ         FAIR      22  17  81 CALM      30.30F
PAGOSA SPRINGS FAIR      25  21  85 CALM      30.35F
TELLURIDE      FAIR      33  18  54 SE7       30.39S WCI  27
WOLF CREEK PAS FAIR      28  16  59 SW21      30.47F WCI  15
$$

COZ009-010-012-014-032>034-037-058>063-131200-
...CENTRAL COLORADO...

CITY           SKY/WX    TMP DP  RH WIND       PRES   REMARKS
ASPEN          FAIR      25  17  72 SE7       30.28F WCI  17
BUENA VISTA    FAIR      26  21  79 W3        30.28F
COPPER MTN     FAIR      34  12  40 W18G29    30.39F WCI  23
BERTHOUD PASS  FAIR      23  14  68 NW37G44   30.33S WCI   4
COTTONWOOD PAS FAIR      41  16  36 W7        30.32F
GUNNISON       FAIR      -2 -17  50 CALM      30.44F
KREMMLING      FAIR       1  -4  78 CALM      30.33F
LEADVILLE      FAIR      27  13  55 NE6       30.31F WCI  20
MONARCH PASS   FAIR      27  16  63 W36       30.49F WCI   9
SALIDA         NOT AVBL
SUNLIGHT       FAIR      32  19  59 CALM      30.39F
WILKERSON PASS FAIR      30  16  55 SW15G30   30.32F WCI  19
$$

COZ069>075-131200-
...SAN LUIS VALLEY/SANGRE DE CRISTO MOUNTAINS...

CITY           SKY/WX    TMP DP  RH WIND       PRES   REMARKS
ALAMOSA        FAIR      21  17  84 N3        30.32F
LA VETA PASS   FAIR      32  19  59 MISG      30.35F
SAGUACHE       FAIR      28  21  74 NW13      30.33F WCI  18
$$

COZ035-036-038>040-131200-
...NORTHERN COLORADO FRONT RANGE...

CITY           SKY/WX    TMP DP  RH WIND       PRES   REMARKS
DENVER INTL AP FOG       28  27  96 W5        30.11F VSB 1/16WCI  23
DMNS CITY PARK   N/A     30  30 100 MISG      30.12F
AURORA         FOG       27  27 100 CALM      30.12F VSB 1/4
FRONT RANGE AP FOG       28  28 100 W5        30.12F VSB 1/4 WCI  23
ERIE MUNI ARPT FOG       30  30 100 W3        30.12F VSB 1/4
BOULDER MUN AP SNOW      30  30 100 CALM      30.11F VSB 1/4
CENTENNIAL     MOCLDY    35  30  82 CALM      30.11F
BROOMFIELD     FOG       30  30 100 S3        30.11F VSB 1/4
FORT COLLINS   CLOUDY    30  28  93 CALM      30.14F VSB 1/4
LONGMONT       FOG       32  32  98 CALM      30.14F VSB 1/2
$$

COZ041-046-047-076>085-087-088-131200-
...PIKES PEAK/PALMER DIVIDE AND SOUTHERN FOOTHILLS...

CITY           SKY/WX    TMP DP  RH WIND       PRES   REMARKS
COLO. SPRINGS  MOCLDY    32  26  78 W3        30.17F
A. F. ACADEMY  FAIR      28  26  89 N6        30.14F WCI  22
SCHRIEVER AFB  FAIR      29  26  89 SW3       30.16F
ELLICOTT       FAIR     N/A N/A N/A CALM      30.15F
FALCON         FAIR      38  24  57 W7        30.17F
FORT CARSON    FAIR      30  27  90 S2        30.15F
LIMON          FOG       26  26 100 S9        30.16F VSB 1/2 WCI  17
MONUMENT HILL  FAIR      41  23  48 SW17      30.17S
TRINIDAD       FAIR      44  21  40 CALM      30.18F
$$

COZ042>045-048>051-090-091-131200-
...NORTHEAST COLORADO...

CITY           SKY/WX    TMP DP  RH WIND       PRES   REMARKS
GREELEY ARPT   CLOUDY    30  28  93 CALM      30.14F
AKRON          CLOUDY    29  29 100 S16       30.13F WCI  17
BURLINGTON     FOG       26  24  92 S20       30.23F VSB 1/2 WCI  12
WRAY           CLOUDY    29  29 100 S16       30.24F WCI  18
STERLING       CLOUDY    32  32 100 S7        30.15F WCI  26
HOLYOKE        CLOUDY    34  32  93 S14       30.21F WCI  24
FORT MORGAN    CLOUDY    28  28  96 CALM      30.13F
$$

COZ086-089-092>099-131200-
...SOUTHEAST COLORADO...

CITY           SKY/WX    TMP DP  RH WIND       PRES   REMARKS
PUEBLO         CLOUDY    30  27  88 E5        30.20F WCI  25
LA JUNTA       CLOUDY    29  27  92 N5        30.21F WCI  24
LAMAR          CLOUDY    30  27  88 SE13      30.20F WCI  20
SPRINGFIELD      N/A     26  24  92 S13       30.19F WCI  15
$$



USA.gov is the U.S. government's official web portal to all federal, state and local government web resources and services.